Monroe, Wisconsin, United States (53566)
Lat: 42.60N, Lon: 89.64W
Wx Zone: WIZ068
Local Info
Past Weather Observations for Today

NOTE: This archive is for the closest National Weather Service station to Monroe. Information may differ from the station used for current weather conditions.

Click here for Long-term Archive

Time Weather Temperature Dewpoint Humidity Pressure Winds Precip Visibility
23:35
Overcast
46°F / 8°C 43°F / 6°C 87% 30.06 in
(1018 mb)
NE 10.4 mph
(NE 17 kph)
- 10SM
23:15
Overcast
46°F / 8°C 43°F / 6°C 87% 30.06 in
(1018 mb)
NE 9.2 mph
(NE 15 kph)
- 10SM
22:55
Overcast
46°F / 8°C 43°F / 6°C 87% 30.04 in
(1017 mb)
NE 12.7 mph
(NE 20 kph)
- 10SM
22:35
Overcast
46°F / 8°C 43°F / 6°C 87% 30.04 in
(1017 mb)
NE 11.5 mph
(NE 19 kph)
- 10SM
22:15
Overcast
46°F / 8°C 43°F / 6°C 87% 30.04 in
(1017 mb)
NE 10.4 mph
(NE 17 kph)
- 10SM
21:55
Overcast
46°F / 8°C 43°F / 6°C 87% 30.04 in
(1017 mb)
NE 11.5 mph
(NE 19 kph)
- 10SM
21:35
Overcast
46°F / 8°C 43°F / 6°C 87% 30.04 in
(1017 mb)
NE 10.4 mph
(NE 17 kph)
- 10SM
21:15
Overcast
46°F / 8°C 43°F / 6°C 87% 30.04 in
(1017 mb)
NE 12.7 mph
(NE 20 kph)
- 10SM
20:55
Overcast
46°F / 8°C 43°F / 6°C 87% 30.04 in
(1017 mb)
NE 13.8 mph
(NE 22 kph)
- 10SM
20:35
Overcast
48°F / 9°C 43°F / 6°C 82% 30.04 in
(1017 mb)
NE 15 mph
(NE 24 kph)
- 10SM
20:15
Overcast
48°F / 9°C 43°F / 6°C 82% 30.04 in
(1017 mb)
NNE 15 mph
(NNE 24 kph)
- 10SM
19:55
Overcast
50°F / 10°C 43°F / 6°C 76% 30.04 in
(1017 mb)
NE 17.3 mph
(NE 28 kph)
- 10SM
19:35
Overcast
Drizzle
50°F / 10°C 43°F / 6°C 76% 30.01 in
(1016 mb)
NE 13.8 mph
(NE 22 kph)
- 10SM
19:15
Overcast
Light Rain
50°F / 10°C 43°F / 6°C 76% 30.01 in
(1016 mb)
NE 10.4 mph
(NE 17 kph)
- 10SM
18:55
Overcast
Rain
50°F / 10°C 43°F / 6°C 76% 30.01 in
(1016 mb)
NE 12.7 mph
(NE 20 kph)
- 10SM
18:35
Overcast
50°F / 10°C 43°F / 6°C 76% 30.01 in
(1016 mb)
NE 10.4 mph
(NE 17 kph)
- 10SM
18:20
Overcast
Drizzle
50°F / 10°C 45°F / 7°C 82% 30.01 in
(1016 mb)
NE 11.5 mph
(NE 19 kph)
- 10SM
17:55
Overcast
Rain
52°F / 11°C 43°F / 6°C 72% 30.01 in
(1016 mb)
NE 9.2 mph
(NE 15 kph)
- 10SM
17:35
Overcast
52°F / 11°C 43°F / 6°C 72% 30.01 in
(1016 mb)
NE 10.4 mph
(NE 17 kph)
- 10SM
17:15
Overcast
54°F / 12°C 43°F / 6°C 67% 30.01 in
(1016 mb)
NE 9.2 mph
(NE 15 kph)
- 10SM
16:55
Overcast
54°F / 12°C 43°F / 6°C 67% 30.01 in
(1016 mb)
NE 15 mph
(NE 24 kph)
- 10SM
16:40
Overcast
54°F / 12°C 43°F / 6°C 67% 30.01 in
(1016 mb)
NE 11.5 mph
(NE 19 kph)
- 10SM
16:15
Overcast
54°F / 12°C 43°F / 6°C 67% 29.98 in
(1015 mb)
NE 13.8 mph
(NE 22 kph)
- 10SM
15:55
Mostly Cloudy
54°F / 12°C 43°F / 6°C 67% 29.98 in
(1015 mb)
NE 11.5 mph
(NE 19 kph)
- 10SM
15:35
Mostly Cloudy
54°F / 12°C 45°F / 7°C 72% 30.01 in
(1016 mb)
NE 9.2 mph
(NE 15 kph)
- 10SM
15:15
Overcast
54°F / 12°C 45°F / 7°C 72% 30.01 in
(1016 mb)
NE 11.5 mph
(NE 19 kph)
- 10SM
14:55
Overcast
52°F / 11°C 43°F / 6°C 72% 30.01 in
(1016 mb)
ENE 9.2 mph
(ENE 15 kph)
- 10SM
14:40
Overcast
52°F / 11°C 45°F / 7°C 77% 30.01 in
(1016 mb)
NE 9.2 mph
(NE 15 kph)
- 10SM
14:15
Overcast
52°F / 11°C 45°F / 7°C 77% 30.01 in
(1016 mb)
NE 11.5 mph
(NE 19 kph)
- 10SM
13:55
Overcast
52°F / 11°C 45°F / 7°C 77% 30.01 in
(1016 mb)
NNE 11.5 mph
(NNE 19 kph)
- 10SM
13:35
Overcast
52°F / 11°C 45°F / 7°C 77% 30.01 in
(1016 mb)
NE 13.8 mph
(NE 22 kph)
- 10SM
13:15
Overcast
52°F / 11°C 46°F / 8°C 82% 30.01 in
(1016 mb)
NE 16.1 mph
(NE 26 kph)
- 10SM
12:55
Overcast
52°F / 11°C 46°F / 8°C 82% 30.01 in
(1016 mb)
NE 12.7 mph
(NE 20 kph)
- 10SM
12:35
Overcast
50°F / 10°C 45°F / 7°C 82% 30.01 in
(1016 mb)
NE 12.7 mph
(NE 20 kph)
- 10SM
12:15
Overcast
48°F / 9°C 45°F / 7°C 87% 30.01 in
(1016 mb)
NE 10.4 mph
(NE 17 kph)
- 10SM
11:55
Overcast
46°F / 8°C 45°F / 7°C 93% 30.01 in
(1016 mb)
NE 12.7 mph
(NE 20 kph)
- 10SM
11:35
Overcast
46°F / 8°C 43°F / 6°C 87% 30.04 in
(1017 mb)
ENE 5.8 mph
(ENE 9 kph)
- 10SM
11:15
Overcast
45°F / 7°C 43°F / 6°C 93% 30.04 in
(1017 mb)
ENE 9.2 mph
(ENE 15 kph)
- 10SM
10:55
Overcast
45°F / 7°C 43°F / 6°C 93% 30.04 in
(1017 mb)
ENE 8.1 mph
(ENE 13 kph)
- 10SM
10:35
Overcast
45°F / 7°C 43°F / 6°C 93% 30.04 in
(1017 mb)
NE 11.5 mph
(NE 19 kph)
- 10SM
10:15
Overcast
45°F / 7°C 43°F / 6°C 93% 30.04 in
(1017 mb)
NE 15 mph
(NE 24 kph)
- 10SM
09:55
Overcast
45°F / 7°C 43°F / 6°C 93% 30.01 in
(1016 mb)
NE 19.6 mph
(NE 32 kph)
- 10SM
09:35
Overcast
45°F / 7°C 43°F / 6°C 93% 30.04 in
(1017 mb)
NE 16.1 mph
(NE 26 kph)
- 10SM
09:15
Overcast
45°F / 7°C 43°F / 6°C 93% 30.04 in
(1017 mb)
NE 18.4 mph
(NE 30 kph)
- 10SM
09:00
Overcast
43°F / 6°C 43°F / 6°C 100% 30.04 in
(1017 mb)
NE 15 mph
(NE 24 kph)
- 10SM
08:40
Overcast
43°F / 6°C 43°F / 6°C 100% 30.04 in
(1017 mb)
NE 15 mph
(NE 24 kph)
- 10SM
08:15
Overcast
43°F / 6°C 43°F / 6°C 100% 30.04 in
(1017 mb)
NE 13.8 mph
(NE 22 kph)
- 10SM
07:55
Overcast
43°F / 6°C 41°F / 5°C 93% 30.01 in
(1016 mb)
NE 15 mph
(NE 24 kph)
- 7SM
07:35
Overcast
Fog And Mist
43°F / 6°C 41°F / 5°C 93% 30.01 in
(1016 mb)
NE 16.1 mph
(NE 26 kph)
- 5SM
07:15
Overcast
Fog And Mist
43°F / 6°C 41°F / 5°C 93% 30.01 in
(1016 mb)
NE 19.6 mph
(NE 32 kph)
- 5SM
06:55
Overcast
43°F / 6°C 41°F / 5°C 93% 30.01 in
(1016 mb)
NE 15 mph
(NE 24 kph)
- 10SM
06:35
Overcast
43°F / 6°C 41°F / 5°C 93% 30.01 in
(1016 mb)
NE 13.8 mph
(NE 22 kph)
- 10SM
06:20
Overcast
41°F / 5°C 41°F / 5°C 100% 30.01 in
(1016 mb)
NE 12.7 mph
(NE 20 kph)
- 10SM
05:55
Overcast
41°F / 5°C 41°F / 5°C 100% 30.01 in
(1016 mb)
NE 16.1 mph
(NE 26 kph)
- 10SM
05:35
Overcast
41°F / 5°C 41°F / 5°C 100% 29.98 in
(1015 mb)
NE 15 mph
(NE 24 kph)
- 10SM
05:15
Overcast
41°F / 5°C 41°F / 5°C 100% 29.98 in
(1015 mb)
NE 16.1 mph
(NE 26 kph)
- 10SM
04:55
Overcast
41°F / 5°C 41°F / 5°C 100% 29.98 in
(1015 mb)
NE 19.6 mph
(NE 32 kph)
- 7SM
04:35
Overcast
41°F / 5°C 41°F / 5°C 100% 29.98 in
(1015 mb)
NE 16.1 mph
(NE 26 kph)
- 10SM
04:15
Overcast
Fog And Mist
43°F / 6°C 41°F / 5°C 93% 29.95 in
(1014 mb)
NE 18.4 mph
(NE 30 kph)
- 5SM
03:55
Overcast
Fog And Mist
43°F / 6°C 43°F / 6°C 100% 29.98 in
(1015 mb)
NE 18.4 mph
(NE 30 kph)
- 5SM
03:35
Overcast
Fog And Mist
43°F / 6°C 43°F / 6°C 100% 29.98 in
(1015 mb)
NE 13.8 mph
(NE 22 kph)
- 5SM
03:15
Overcast
Fog And Mist
43°F / 6°C 43°F / 6°C 100% 29.95 in
(1014 mb)
NE 13.8 mph
(NE 22 kph)
- 3SM
02:55
Overcast
Fog And Mist
43°F / 6°C 43°F / 6°C 100% 29.95 in
(1014 mb)
NE 13.8 mph
(NE 22 kph)
- 3SM
02:35
Overcast
Fog And Mist
43°F / 6°C 43°F / 6°C 100% 29.95 in
(1014 mb)
NE 13.8 mph
(NE 22 kph)
- 3SM
02:15
Overcast
Fog And Mist
43°F / 6°C 43°F / 6°C 100% 29.95 in
(1014 mb)
NE 12.7 mph
(NE 20 kph)
- 4SM
01:55
Overcast
Fog And Mist
43°F / 6°C 43°F / 6°C 100% 29.95 in
(1014 mb)
NE 13.8 mph
(NE 22 kph)
- 4SM
01:35
Overcast
Fog And Mist
43°F / 6°C 43°F / 6°C 100% 29.95 in
(1014 mb)
NE 13.8 mph
(NE 22 kph)
- 4SM
01:15
Overcast
Fog And Mist
43°F / 6°C 43°F / 6°C 100% 29.95 in
(1014 mb)
NE 16.1 mph
(NE 26 kph)
- 4SM
00:55
Overcast
Fog And Mist
43°F / 6°C 41°F / 5°C 93% 29.95 in
(1014 mb)
NE 12.7 mph
(NE 20 kph)
- 5SM
00:35
Overcast
43°F / 6°C 41°F / 5°C 93% 29.95 in
(1014 mb)
NE 12.7 mph
(NE 20 kph)
- 7SM
00:15
Overcast
43°F / 6°C 41°F / 5°C 93% 29.95 in
(1014 mb)
NE 15 mph
(NE 24 kph)
- 7SM
Time Weather Temperature Dewpoint Humidity Pressure Winds Precip Visibility


Weather for websites

WeatherForYou.com, LLC is not responsible for any damages or problems caused by this service. Current weather conditions are obtained from the closest station including government and personal stations which may have varying degrees of accuracy. Weather forecasts are derived from the NOAA NDFD. Like all things, this site belongs to Jesus Christ... He just trusts us to maintain it. If you have any questions or comments email webmaster@weatherforyou.com

Copyright © 2016, WeatherForYou.com LLC. All rights reserved.